Elkins, WV

12:53 PM EST on February 21, 2018 (GMT -0500)
Elkins-Randolph County

Weather History for KEKN - April, 2013

Change the Weather History Date:

Saturday, April 6, 2013

  Actual Average Record
Temperature  
Mean Temperature 44 °F 47 °F  
Max Temperature 65 °F 60 °F 86 °F (2010)
Min Temperature 22 °F 34 °F 18 °F (1982)
Degree Days  
Heating Degree Days 21 18  
Month to date heating degree days 160 115  
Since 1 July heating degree days 5334 5216  
Cooling Degree Days 0 0  
Month to date cooling degree days 0 0  
Year to date cooling degree days 0 0  
Moisture  
Dew Point 14 °F    
Average Humidity 45    
Maximum Humidity 84    
Minimum Humidity 5    
Precipitation  
Precipitation 0.00 in 0.12 in 1.17 in (1926)
Month to date precipitation 0.15 0.76  
Year to date precipitation 10.00 11.05  
Snow  
Snow 0.00 in - - ()
Month to date snowfall 0.0  
Since 1 September snowfall 77.5  
Snow Depth 0.00 in    
Sea Level Pressure  
Sea Level Pressure 30.19 in    
Wind  
Wind Speed 4 mph (SSE)    
Max Wind Speed 14 mph    
Max Gust Speed 18 mph    
Visibility 10 miles    
Events      
T = Trace of Precipitation, MM = Missing Value Source: NWS Daily Summary

Daily Weather History Graph

Daily Weather History Graph

Search for Another Location

Airport or City:

Trip Planner

Search our weather history database for the weather conditions in past years. The results will help you decide how hot, cold, wet, or windy it might be!

Date:

Astronomy

Apr. 06, 2013 Rise Set
Actual Time 6:56 AM EDT 7:48 PM EDT
Civil Twilight 6:28 AM EDT 8:15 PM EDT
Nautical Twilight 5:56 AM EDT 8:47 PM EDT
Astronomical Twilight 5:23 AM EDT 9:20 PM EDT
Moon 4:36 AM EDT (4/6) 4:16 PM EDT (4/6)
Length of Visible Light 13h 46m
Length of Day
12h 52m
Waning Crescent, 15% of the Moon is Illuminated
Apr 6
Waning Crescent
Apr 10
New
Apr 18
First Quarter
Apr 25
Full
May 2
Last Quarter

Hourly Weather History & Observations

Time (EDT) Temp. Windchill Dew Point Humidity Pressure Visibility Wind Dir Wind Speed Gust Speed Precip Events Conditions
12:51 AM 37.9 °F 33.5 °F 19.9 °F 48% 30.16 in 10.0 mi North 5.8 mph - N/A   Clear
1:51 AM 34.0 °F 31.0 °F 19.9 °F 56% 30.18 in 10.0 mi NNW 3.5 mph - N/A   Clear
2:51 AM 28.0 °F - 19.9 °F 72% 30.19 in 10.0 mi Calm Calm - N/A   Clear
3:51 AM 25.0 °F - 19.9 °F 81% 30.20 in 10.0 mi Calm Calm - N/A   Clear
4:51 AM 24.1 °F - 19.0 °F 81% 30.22 in 10.0 mi Calm Calm - N/A   Clear
5:51 AM 24.1 °F - 19.0 °F 81% 30.23 in 10.0 mi Calm Calm - N/A   Clear
6:51 AM 21.9 °F - 18.0 °F 85% 30.25 in 10.0 mi Calm Calm - N/A   Clear
7:51 AM 27.0 °F - 19.9 °F 75% 30.29 in 10.0 mi Calm Calm - N/A   Clear
8:51 AM 33.1 °F - 24.1 °F 70% 30.29 in 10.0 mi Calm Calm - N/A   Clear
9:51 AM 39.0 °F - 19.9 °F 46% 30.27 in 10.0 mi Calm Calm - N/A   Clear
10:51 AM 45.0 °F - 17.1 °F 33% 30.25 in 10.0 mi Calm Calm - N/A   Clear
11:51 AM 51.1 °F - 10.9 °F 20% 30.24 in 10.0 mi NNW 3.5 mph - N/A   Clear
12:51 PM 54.0 °F - -2.9 °F 10% 30.22 in 10.0 mi Variable 3.5 mph - N/A   Clear
1:51 PM 57.9 °F - -14.1 °F 5% 30.19 in 10.0 mi Calm Calm - N/A   Clear
2:51 PM 61.0 °F - -4.0 °F 7% 30.17 in 10.0 mi Variable 3.5 mph - N/A   Clear
3:51 PM 63.0 °F - 3.9 °F 10% 30.14 in 10.0 mi Variable 3.5 mph - N/A   Clear
4:51 PM 64.0 °F - 9.0 °F 12% 30.13 in 10.0 mi South 6.9 mph - N/A   Clear
5:51 PM 64.0 °F - 12.9 °F 14% 30.13 in 10.0 mi SSW 8.1 mph - N/A   Clear
6:51 PM 62.1 °F - 15.1 °F 16% 30.14 in 10.0 mi SSE 11.5 mph - N/A   Clear
7:51 PM 57.9 °F - 14.0 °F 18% 30.14 in 10.0 mi SSE 8.1 mph - N/A   Clear
8:51 PM 55.9 °F - 18.0 °F 23% 30.14 in 10.0 mi South 5.8 mph - N/A   Clear
9:51 PM 55.0 °F - 21.9 °F 28% 30.14 in 10.0 mi SSE 6.9 mph - N/A   Clear
10:51 PM 54.0 °F - 24.1 °F 31% 30.13 in 10.0 mi SSE 9.2 mph - N/A   Clear
11:51 PM 53.1 °F - 23.0 °F 31% 30.12 in 10.0 mi SSE 9.2 mph - N/A   Clear